, AK

(GMT )
Gustavus

Weather History for PAGS - February, 2013

Change the Weather History Date:

Sunday, February 24, 2013

  Actual Average Record
Temperature  
Mean Temperature 36 °F -  
Max Temperature 39 °F 39 °F 48 °F (2004)
Min Temperature 33 °F 29 °F 0 °F (2011)
Degree Days  
Heating Degree Days 29    
Moisture  
Dew Point 29 °F    
Average Humidity 76    
Maximum Humidity 81    
Minimum Humidity 65    
Precipitation  
Precipitation 0.00 in - - ()
Sea Level Pressure  
Sea Level Pressure 29.73 in    
Wind  
Wind Speed 8 mph (SE)    
Max Wind Speed 17 mph    
Max Gust Speed 25 mph    
Visibility 10 miles    
Events      
Averages and records for this station are not official NWS values.
T = Trace of Precipitation, MM = Missing Value Source: NWS Daily Summary

Daily Weather History Graph

Daily Weather History Graph

Search for Another Location

Airport or City:

Trip Planner

Search our weather history database for the weather conditions in past years. The results will help you decide how hot, cold, wet, or windy it might be!

Date:

Astronomy

Feb. 24, 2013 Rise Set
Actual Time 7:10 AM AKST 5:22 PM AKST
Civil Twilight 6:30 AM AKST 6:02 PM AKST
Nautical Twilight 5:44 AM AKST 6:48 PM AKST
Astronomical Twilight 4:58 AM AKST 7:35 PM AKST
Moon 4:42 PM AKST 6:15 AM AKST
Length of Visible Light 11h 32m
Length of Day
10h 11m
Waxing Gibbous, 99% of the Moon is Illuminated
Feb 24
Waxing Gibbous
Feb 25
Full
Mar 4
Last Quarter
Mar 11
New
Mar 19
First Quarter

Hourly Weather History & Observations

Time (AKST) Temp. Windchill Dew Point Humidity Pressure Visibility Wind Dir Wind Speed Gust Speed Precip Events Conditions
12:16 AM 37.4 °F 30.3 °F 30.2 °F 75% 29.67 in 10.0 mi ESE 10.4 mph - N/A   Overcast
12:36 AM 35.6 °F 28.0 °F 30.2 °F 81% 29.67 in 10.0 mi ESE 10.4 mph - N/A   Mostly Cloudy
12:56 AM 35.6 °F 28.6 °F 30.2 °F 81% 29.66 in 10.0 mi ESE 9.2 mph - N/A   Overcast
1:16 AM 35.6 °F 27.5 °F 28.4 °F 75% 29.65 in 10.0 mi SE 11.5 mph - N/A   Scattered Clouds
1:36 AM 35.6 °F 29.2 °F 28.4 °F 75% 29.65 in 10.0 mi SE 8.1 mph - N/A   Clear
1:56 AM 35.6 °F 30.7 °F 28.4 °F 75% 29.66 in 10.0 mi SSE 5.8 mph - N/A   Scattered Clouds
2:16 AM 37.4 °F 31.4 °F 28.4 °F 70% 29.66 in 10.0 mi SE 8.1 mph - N/A   Mostly Cloudy
2:36 AM 35.6 °F 29.9 °F 28.4 °F 75% 29.65 in 10.0 mi SE 6.9 mph - N/A   Mostly Cloudy
2:56 AM 35.6 °F 29.2 °F 28.4 °F 75% 29.64 in 10.0 mi ESE 8.1 mph - N/A   Mostly Cloudy
3:16 AM 35.6 °F 29.9 °F 28.4 °F 75% 29.64 in 10.0 mi SE 6.9 mph - N/A   Overcast
3:36 AM 35.6 °F 29.2 °F 28.4 °F 75% 29.63 in 10.0 mi SE 8.1 mph - N/A   Overcast
3:56 AM 37.4 °F 31.4 °F 28.4 °F 70% 29.62 in 10.0 mi SE 8.1 mph - N/A   Overcast
4:16 AM 35.6 °F 29.2 °F 28.4 °F 75% 29.61 in 10.0 mi SE 8.1 mph - N/A   Overcast
4:36 AM 37.4 °F 32.1 °F 28.4 °F 70% 29.61 in 10.0 mi South 6.9 mph - N/A   Overcast
4:56 AM 37.4 °F 29.8 °F 28.4 °F 70% 29.62 in 10.0 mi SSE 11.5 mph 17.3 mph N/A   Overcast
5:16 AM 37.4 °F 27.8 °F 26.6 °F 65% 29.62 in 10.0 mi SE 17.3 mph 20.7 mph N/A   Overcast
5:36 AM 37.4 °F 28.5 °F 28.4 °F 70% 29.63 in 10.0 mi SE 15.0 mph 21.9 mph N/A   Mostly Cloudy
5:56 AM 35.6 °F 25.9 °F 28.4 °F 75% 29.63 in 9.0 mi SE 16.1 mph 23.0 mph N/A   Overcast
6:16 AM 35.6 °F 25.5 °F 28.4 °F 75% 29.64 in 9.0 mi SE 17.3 mph 25.3 mph N/A   Overcast
6:36 AM 33.8 °F 25.3 °F 28.4 °F 81% 29.65 in 4.0 mi SSE 11.5 mph 19.6 mph N/A   Overcast
6:56 AM 33.8 °F 24.8 °F 28.4 °F 81% 29.66 in 3.0 mi SSE 12.7 mph 16.1 mph N/A   Overcast
7:16 AM 33.8 °F 26.4 °F 28.4 °F 81% 29.66 in 6.0 mi SSE 9.2 mph - N/A   Overcast
7:36 AM 33.8 °F 27.0 °F 28.4 °F 81% 29.66 in 5.0 mi SE 8.1 mph - N/A   Overcast
7:56 AM 33.8 °F 26.4 °F 28.4 °F 81% 29.67 in 10.0 mi SE 9.2 mph - N/A   Overcast
8:16 AM 35.6 °F 28.6 °F 30.2 °F 81% 29.67 in 10.0 mi SE 9.2 mph - N/A   Overcast
8:36 AM 35.6 °F 31.7 °F 30.2 °F 81% 29.68 in 10.0 mi South 4.6 mph - N/A   Overcast
8:56 AM 35.6 °F 29.2 °F 30.2 °F 81% 29.70 in 10.0 mi SE 8.1 mph - N/A   Overcast
9:16 AM 35.6 °F 30.7 °F 30.2 °F 81% 29.70 in 10.0 mi South 5.8 mph - N/A   Overcast
9:36 AM 35.6 °F 29.2 °F 30.2 °F 81% 29.71 in 10.0 mi SSE 8.1 mph - N/A   Overcast
9:56 AM 37.4 °F 30.8 °F 30.2 °F 75% 29.71 in 10.0 mi ESE 9.2 mph - N/A   Overcast
10:16 AM 37.4 °F 30.8 °F 30.2 °F 75% 29.72 in 10.0 mi SE 9.2 mph - N/A   Overcast
10:36 AM 37.4 °F 33.8 °F 30.2 °F 75% 29.74 in 10.0 mi SSE 4.6 mph - N/A   Overcast
10:56 AM 37.4 °F 32.8 °F 32.0 °F 81% 29.74 in 10.0 mi SSE 5.8 mph - N/A   Overcast
11:16 AM 39.2 °F 35.0 °F 30.2 °F 70% 29.75 in 10.0 mi ESE 5.8 mph - N/A   Overcast
11:36 AM 37.4 °F 30.8 °F 30.2 °F 75% 29.75 in 10.0 mi ESE 9.2 mph - N/A   Overcast
11:56 AM 37.4 °F 34.9 °F 30.2 °F 75% 29.77 in 10.0 mi SSW 3.5 mph - N/A   Mostly Cloudy
12:16 PM - - - N/A% 29.77 in 10.0 mi SSW 3.5 mph - N/A   Mostly Cloudy
12:36 PM - - - N/A% 29.77 in 10.0 mi South 4.6 mph - N/A   Overcast
12:56 PM - - - N/A% 29.77 in 10.0 mi SW 5.8 mph - N/A   Overcast
1:16 PM - - - N/A% 29.77 in 10.0 mi Calm Calm - N/A   Overcast
1:36 PM - - - N/A% 29.78 in 10.0 mi Calm Calm - N/A   Overcast
1:56 PM - - - N/A% 29.78 in 10.0 mi Calm Calm - N/A   Overcast
2:16 PM 37.4 °F - 30.2 °F 75% 29.78 in 7.0 mi Calm Calm - N/A   Overcast
2:36 PM - - - N/A% 29.78 in 10.0 mi Calm Calm - N/A   Overcast
2:56 PM - - - N/A% 29.79 in 10.0 mi West 10.4 mph - N/A   Overcast
3:16 PM 35.6 °F 31.7 °F 30.2 °F 81% 29.79 in 7.0 mi ESE 4.6 mph - N/A   Overcast
3:36 PM - - - N/A% 29.79 in 10.0 mi NE 3.5 mph - N/A   Overcast
3:56 PM - - - N/A% 29.79 in 10.0 mi Calm Calm - N/A   Mostly Cloudy
4:16 PM - - - N/A% 29.78 in 10.0 mi East 6.9 mph - N/A   Partly Cloudy
4:36 PM - - - N/A% 29.79 in 10.0 mi ESE 4.6 mph - N/A   Clear
4:56 PM - - - N/A% 29.79 in 10.0 mi Calm Calm - N/A   Scattered Clouds
5:16 PM - - - N/A% 29.79 in 10.0 mi Calm Calm - N/A   Overcast
5:36 PM - - - N/A% 29.79 in 10.0 mi East 4.6 mph - N/A   Overcast
5:56 PM - - - N/A% 29.79 in 10.0 mi ESE 8.1 mph - N/A   Overcast
6:16 PM - - - N/A% 29.79 in 10.0 mi SE 9.2 mph - N/A   Mostly Cloudy
6:36 PM - - - N/A% 29.80 in 10.0 mi ESE 8.1 mph - N/A   Mostly Cloudy
6:56 PM - - - N/A% 29.80 in 10.0 mi ESE 5.8 mph - N/A   Mostly Cloudy
7:16 PM - - - N/A% 29.81 in 10.0 mi East 4.6 mph - N/A   Mostly Cloudy
7:36 PM - - - N/A% 29.81 in 10.0 mi East 5.8 mph - N/A   Overcast
7:56 PM - - - N/A% 29.81 in 10.0 mi Calm Calm - N/A   Overcast
8:16 PM - - - N/A% 29.81 in 10.0 mi South 4.6 mph - N/A   Overcast
8:36 PM - - - N/A% 29.81 in 10.0 mi Calm Calm - N/A   Overcast
8:56 PM - - - N/A% 29.81 in 9.0 mi NE 4.6 mph - N/A   Overcast
9:16 PM - - - N/A% 29.81 in 10.0 mi ENE 3.5 mph - N/A   Partly Cloudy
9:36 PM - - - N/A% 29.81 in 10.0 mi Calm Calm - N/A   Partly Cloudy
9:56 PM - - - N/A% 29.80 in 10.0 mi Calm Calm - N/A   Clear
10:16 PM - - - N/A% 29.81 in 10.0 mi Calm Calm - N/A   Clear
10:36 PM - - - N/A% 29.81 in 10.0 mi Calm Calm - N/A   Partly Cloudy
10:56 PM - - - N/A% 29.82 in 10.0 mi Calm Calm - N/A   Partly Cloudy
11:16 PM - - - N/A% 29.82 in 10.0 mi ESE 3.5 mph - N/A   Scattered Clouds
11:36 PM - - - N/A% 29.82 in 10.0 mi SE 5.8 mph - N/A   Mostly Cloudy
11:56 PM - - - N/A% 29.82 in 10.0 mi Calm Calm - N/A   Overcast